Location: Dresden
(51.0500°N, 13.7500°E)
Time: 04:12:50
(UTC+00:00)

ISS - Pass Details

Date: 28 March 2019
Orbit: 408 x 410 km, 51.6° (Epoch: 20 April)

Event Time Altitude Azimuth Distance (km) Brightness Sun altitude
Rises 18:18:31 0° 256° (WSW) 2,335 1.2 -8.2°
Reaches altitude 10° 18:20:36 10° 256° (WSW) 1,474 0.1 -8.5°
Maximum altitude 18:23:54 85° 168° (SSE) 416 -3.8 -9.0°
Enters shadow 18:27:02 11° 79° (E) 1,399 -1.6 -9.5°
